SCP
0 0 0 0 0 0 0 0 0 -0 0 0 0 0 0 0 0 0 0 0 0 0 0 0 0 0 0 0 0 0 0 0 0 0 0 0 0 0 0 0 0 0 0 0 0 0 0 0 0 0 0 0 0 0
0 0 0 0 0 0 0 0 0 0 -0 0 0 0 0 0 0 0 0 0 0 0 0 0 0 0 0 0 0 0 0 0 0 0 0 0 0 0 0 0 0 0 0 0 0 0 0 0 0 0 0 0 0 0
0 0 0 0 0 0 0 0 0 0 -0 0 0 0 0 0 0 0 0 0 0 0 0 0 0 0 0 0 0 0 0 0 0 0 0 0 0 0 0 0 0 0 0 0 0 0 0 0 0 0 0 0 0 0
0 0 0 0 -0 -0 0 0 0 0 0 0 0 0 0 0 0 0 0 0 0 0 0 0 0 0 0 0 0 0 0 0 0 0 0 0 0 0 0 0 0 0 0 0 0 0 0 0 0 0 0 0 0 0
0 0 0 0 0 -0 -0 0 0 0 0 0 -0 0 0 0 0 0 0 0 0 0 0 0 0 0 0 0 0 0 0 0 0 0 0 0 0 0 0 0 0 0 0 0 0 0 0 0 -0 0 0 0 0 0
0 0 0 0 0 0 0 0 0 0 0 0 -0 -0 0 0 0 0 0 0 0 0 0 0 0 0 0 0 0 0 0 0 0 0 0 0 0 0 0 0 0 0 0 0 0 0 0 0 0 0 0 0 0 0
0 0 0 0 0 0 0 0 0 0 0 0 0 -0 0 0 0 0 0 0 0 0 0 0 0 0 0 0 0 0 0 0 0 0 0 0 0 0 0 0 0 -0 -0 -0 0 0 0 0 0 0 0 0 0 0
0 0 0 0 0 0 0 0 0 0 0 0 0 0 0 0 0 0 0 0 0 0 0 0 0 0 0 0 0 0 0 0 0 0 0 0 0 0 0 0 0 0 0 0 0 0 0 0 0 0 0 0 0 0
0 0 0 0 0 0 0 0 0 0 0 0 0 0 0 0 0 0 0 0 0 0 0 0 0 0 0 0 0 0 0 0 0 0 0 0 0 0 0 0 0 0 0 0 0 0 0 0 0 0 0 0 0 0
0 0 0 0 -0 -0 0 0 0 0 0 0 0 0 0 0 0 0 0 0 0 0 0 0 0 0 0 0 0 0 0 0 0 0 0 0 0 0 0 0 0 0 0 0 0 0 0 0 0 0 0 0 0 0
0 0 0 -0 -0 -0 -0 0 0 0 0 0 0 0 0 0 0 0 0 0 0 0 0 0 0 0 0 0 0 0 0 0 0 0 0 0 0 0 0 0 0 0 0 0 0 0 0 0 0 0 0 0 0 0
0 0 0 -0 -0 -0 -0 0 0 0 0 0 0 0 0 0 0 0 0 0 0 0 0 0 0 0 0 0 0 0 0 0 0 0 0 0 0 0 0 0 0 0 0 0 0 0 0 0 0 0 0 0 0 0
0 0 0 -0 -0 0 0 0 0 0 0 0 0 0 0 0 0 0 0 0 0 0 0 0 0 0 0 0 0 0 0 0 0 0 0 0 0 0 0 0 0 0 0 0 0 0 0 0 0 0 0 0 0 0
0 -0 0 -0 -0 0 0 0 -0 0 0 0 0 0 0 0 0 0 0 0 0 0 0 0 0 0 0 0 0 0 0 0 0 0 0 0 0 0 0 0 0 0 0 0 0 0 0 0 0 0 0 0 0 0
-0 -0 -0 0 0 0 0 0 0 0 0 0 0 0 0 0 0 0 0 0 0 0 0 0 0 0 0 0 0 0 0 0 0 0 0 0 0 0 0 0 0 0 0 0 0 0 0 0 0 0 0 0 0 0
-0 -0 0 0 0 0 0 0 0 0 0 0 0 0 0 0 0 0 0 0 0 0 0 0 0 0 0 0 0 0 0 0 0 0 0 0 0 0 0 0 0 0 0 0 0 0 0 0 0 0 0 0 0 0
-0 -0 -0 0 0 0 0 0 0 0 0 0 0 0 0 0 0 0 0 0 0 0 0 0 0 0 0 0 0 0 0 0 0 0 0 0 0 0 0 0 0 0 0 0 0 0 0 0 0 0 0 0 0 0
-0 -0 0 0 0 0 0 0 0 0 0 0 0 0 0 0 0 0 0 0 0 0 0 0 0 0 0 0 0 0 0 0 0 0 0 0 0 0 0 0 0 0 0 0 0 0 0 0 0 0 0 0 0 0
-0 0 0 0 -0 0 0 0 0 0 0 0 0 0 0 0 0 0 0 0 0 0 0 0 0 0 0 0 0 0 0 0 0 0 0 0 0 0 0 0 0 0 0 0 0 0 0 0 0 0 0 0 0 0
0 0 0 0 0 0 0 0 0 0 0 0 0 0 0 0 0 0 0 0 0 0 0 0 0 0 0 0 0 0 0 0 0 0 0 0 0 0 0 0 0 0 0 0 0 0 0 0 0 0 0 0 0 0
0 0 0 0 0 0 0 0 0 0 0 0 0 0 0 0 0 0 0 0 0 0 0 0 0 0 0 0 0 0 0 0 0 0 0 0 0 0 0 0 0 0 0 0 0 0 0 0 0 0 0 0 0 0
0 0 0 0 0 0 0 0 0 0 0 0 0 0 0 0 0 0 0 0 0 0 0 0 0 0 0 0 0 0 0 0 0 0 0 0 0 0 0 0 0 0 0 0 0 0 0 0 0 0 0 0 0 0
0 0 0 0 0 0 0 0 0 0 0 0 0 0 0 0 0 0 0 0 0 0 0 0 0 0 0 0 0 0 0 0 0 0 0 0 0 0 0 0 0 0 0 0 0 0 0 0 0 0 0 0 0 0
0 0 0 0 0 0 0 0 0 0 0 0 0 0 0 0 0 0 0 0 0 0 0 0 0 0 0 0 0 0 0 0 0 0 0 0 0 0 0 0 0 0 0 0 0 0 0 0 0 0 0 0 0 0
0 0 0 0 0 0 0 0 0 0 0 0 0 0 0 0 0 0 0 0 0 0 0 0 0 0 0 0 0 0 0 0 0 0 0 0 0 0 0 0 0 0 0 0 0 0 0 0 0 0 0 0 0 0
-0 0 0 0 0 0 0 0 0 0 0 0 0 0 0 0 0 0 0 0 0 0 0 0 0 0 0 0 0 0 0 0 0 0 0 0 0 0 0 0 0 0 0 0 0 0 0 0 0 0 0 0 0 0
0 0 0 0 0 0 0 0 0 0 0 0 0 0 0 0 0 0 0 0 0 0 0 0 0 0 0 0 0 0 0 0 0 0 0 0 0 0 0 0 0 0 0 0 0 0 0 0 0 0 0 0 0 0
0 0 0 0 0 0 0 0 0 0 0 0 0 0 0 0 0 0 0 0 0 0 0 0 0 0 0 0 0 0 0 0 0 0 0 0 0 0 0 0 0 0 0 0 0 0 0 0 0 0 0 0 0 0
0 0 0 0 0 0 0 0 0 0 0 0 0 0 0 0 0 0 0 0 0 0 0 0 0 0 0 0 0 0 0 0 0 0 0 0 0 0 0 0 0 0 0 0 0 0 0 0 0 0 0 0 0 0
-0 0 0 0 -0 0 0 0 0 0 0 0 0 0 0 0 0 0 0 0 0 0 0 0 0 0 0 0 0 0 0 0 0 0 0 0 0 0 0 0 0 0 0 0 0 0 0 0 0 0 0 0 0 0
-0 -0 -0 -0 0 0 0 0 0 0 0 0 0 0 0 0 0 0 0 0 0 0 0 0 0 0 0 0 0 0 0 0 0 0 0 0 0 0 0 0 0 0 0 0 0 0 0 0 0 0 0 0 0 0
-0 -0 0 0 -0 0 0 0 0 0 0 0 0 0 0 0 0 0 0 0 0 0 0 0 0 0 0 0 0 0 0 0 0 0 0 0 0 0 0 0 0 0 0 0 0 0 0 0 0 0 0 0 0 0
-0 -0 0 0 0 0 0 0 0 0 0 0 0 0 0 0 0 0 0 -0 -0 -0 -0 0 0 0 0 0 0 0 0 0 0 0 0 0 0 0 0 0 0 0 0 0 0 0 0 0 0 0 0 0 0 0
Wind_Speed_500mb
47 50 51 53 52 54 55 58 56 61 58 50 51 51 52 48 59 43 25 17 28 11 12 21 15 9 11 15 10 16 10 4 2 8 8 7 7 11 6 3 7 17 17 8 6 7 18 22 12 16 5 10 22 31
52 54 57 55 54 54 54 57 59 58 72 64 51 53 54 48 54 49 30 23 26 16 9 15 22 25 23 18 18 38 0 7 14 6 4 6 5 5 7 9 3 8 3 8 14 5 5 40 9 15 23 40 28 37
51 55 56 54 56 57 54 56 60 61 64 59 55 53 54 56 54 61 44 35 31 12 12 16 19 28 29 19 20 13 9 15 10 8 8 5 6 7 10 9 4 6 5 3 5 6 5 30 15 30 28 33 36 33
44 48 52 52 56 60 60 56 55 60 57 54 58 48 56 56 56 62 65 46 41 11 5 6 18 20 27 30 24 13 16 19 26 14 5 4 4 8 7 3 6 4 16 11 3 4 6 13 37 37 35 34 35 33
38 41 42 50 52 57 63 62 56 56 54 49 41 55 42 50 54 65 60 64 48 22 9 5 7 19 17 28 21 17 15 15 9 5 3 4 6 6 3 2 8 14 12 9 7 26 20 29 55 60 53 46 31 29
39 38 36 38 34 39 46 62 62 60 53 52 46 60 39 52 51 54 29 65 54 50 7 4 6 10 20 26 23 27 27 17 8 8 5 4 7 5 7 6 2 24 23 22 10 29 34 14 30 44 50 41 35 39
36 40 35 35 36 36 43 52 64 61 58 57 54 44 48 44 49 49 13 25 71 60 16 4 2 6 23 27 20 22 23 13 10 9 5 9 6 10 3 7 14 30 27 29 17 25 25 29 18 26 32 34 36 38
38 42 38 39 41 43 43 43 62 59 56 55 57 46 51 44 42 51 56 7 75 55 19 7 4 7 24 9 8 12 10 9 5 9 7 5 8 1 7 4 26 28 25 29 27 27 24 23 30 28 18 21 25 34
38 40 43 47 54 53 47 40 59 62 56 54 55 44 43 49 40 33 63 33 78 21 13 9 15 12 28 11 12 8 7 3 3 3 4 8 5 9 13 15 34 41 36 27 36 40 39 40 39 34 33 33 36 37
35 39 43 48 61 54 45 37 57 57 52 53 47 35 23 25 48 50 43 45 25 22 12 4 15 8 22 11 6 10 6 7 8 7 16 7 8 47 29 40 30 21 37 36 29 30 36 42 43 42 40 38 39 33
32 34 39 47 50 40 34 42 58 56 54 60 32 17 36 77 41 11 10 10 8 8 14 11 11 12 14 7 6 4 7 8 9 7 12 7 8 2 14 21 30 28 28 32 36 39 38 37 36 37 35 31 31 33
24 33 39 46 53 25 21 37 59 64 50 39 23 51 45 14 9 7 5 6 4 9 8 11 13 16 14 12 6 9 5 4 8 12 8 6 4 10 17 6 13 17 19 21 27 30 32 34 35 36 36 34 33 35
23 34 39 47 50 15 23 38 55 67 48 42 14 14 13 6 8 12 10 4 7 9 19 20 10 14 11 9 6 5 9 5 18 6 7 7 5 16 22 16 10 12 14 14 16 18 19 21 24 25 24 24 26 28
16 29 41 42 51 2 26 36 35 51 65 9 9 11 6 7 7 7 11 10 10 19 43 35 13 7 8 5 5 8 4 8 7 9 10 3 13 22 22 20 16 10 8 5 5 6 9 11 12 12 14 14 13 15
14 25 40 32 55 11 23 23 71 58 10 8 10 11 7 11 10 10 20 20 15 48 44 20 17 10 3 8 4 9 5 6 10 8 3 2 12 17 17 16 14 11 8 7 7 8 8 9 9 9 10 9 9 9
29 27 52 45 52 29 24 57 55 6 10 9 16 7 4 7 3 6 14 16 33 51 29 13 7 7 4 8 7 9 17 12 5 3 3 6 10 13 13 14 13 12 11 11 11 11 11 14 14 14 17 18 17 16
24 42 43 35 34 41 11 25 12 15 12 9 6 14 14 18 11 11 11 18 41 17 5 6 7 8 8 6 6 5 4 5 6 7 5 10 12 11 11 12 11 11 9 11 12 15 14 16 16 18 17 20 18 17
30 33 33 29 23 24 40 20 13 14 14 16 8 13 17 15 20 21 16 23 17 9 5 5 12 7 4 9 6 5 13 7 12 15 14 12 10 10 9 10 11 12 12 14 16 18 19 20 17 18 16 15 13 11
26 27 26 21 18 10 11 13 13 9 10 10 17 17 17 18 43 36 34 33 32 24 16 13 15 7 6 7 7 9 14 16 13 12 11 12 8 7 7 9 10 11 12 10 11 10 11 13 13 13 13 11 9 7
28 23 15 10 8 8 10 14 13 16 7 8 17 20 15 15 22 50 53 42 38 19 19 12 7 5 6 8 10 13 13 15 12 5 7 10 8 7 6 5 6 8 10 12 12 12 12 10 10 9 7 7 6 6
18 5 2 8 16 20 14 12 17 13 12 15 12 13 14 26 29 34 35 36 32 17 8 13 18 15 10 7 11 11 10 11 8 5 5 5 5 4 6 6 6 5 5 6 4 3 3 3 3 3 5 6 6 7
6 11 11 15 14 13 18 20 11 9 10 10 11 15 15 7 14 22 19 40 16 15 16 23 25 17 15 13 12 12 10 7 6 5 5 5 5 6 6 6 6 5 3 2 2 1 1 3 4 5 6 6 7 8
14 13 17 20 13 16 7 11 9 12 7 5 8 8 8 8 12 17 15 16 13 24 26 26 17 19 20 18 15 15 16 15 12 10 11 12 11 10 8 10 9 7 5 4 2 2 3 5 7 9 9 11 11 11
19 18 22 17 29 7 8 14 12 11 10 8 7 7 7 8 10 14 9 9 19 26 29 30 21 19 20 22 25 25 24 23 20 17 18 18 16 15 14 13 12 9 6 4 3 4 6 8 10 10 11 11 13 15
15 28 20 17 25 14 14 10 11 9 9 10 8 8 7 11 7 8 6 12 25 30 26 24 25 25 25 24 24 24 20 17 19 22 21 18 15 14 15 15 13 10 8 8 7 8 10 12 13 14 15 17 20 22
18 23 15 16 15 10 8 8 11 13 8 9 9 6 8 7 10 7 3 19 17 24 23 24 27 30 31 27 25 23 19 14 14 16 19 17 15 13 13 11 9 10 12 11 11 12 14 16 17 18 19 22 26 29
15 11 17 23 12 9 10 16 15 11 11 10 6 7 6 10 8 3 4 20 17 21 23 24 27 31 33 31 24 22 22 20 15 16 18 16 15 16 14 13 13 15 16 17 19 21 22 23 25 27 30 31 32 34
15 25 12 27 19 25 8 9 11 11 7 13 3 11 7 6 3 5 10 11 11 13 15 17 19 21 22 22 19 16 13 10 5 2 8 9 12 13 13 17 19 22 26 28 29 31 31 32 35 40 43 45 46 46
16 34 13 13 14 19 19 10 8 10 15 6 4 5 7 10 11 14 18 17 15 13 14 14 16 15 13 14 17 17 14 11 10 11 15 20 22 21 28 32 34 35 38 40 40 41 42 36 41 52 56 57 60 61
22 31 9 15 10 12 19 18 28 33 37 36 34 53 46 40 30 23 20 18 18 20 21 21 25 28 28 28 22 15 21 22 21 26 33 35 39 39 40 40 41 43 43 44 46 47 47 50 52 54 57 59 60 63
20 19 15 18 12 18 32 41 45 46 52 51 48 48 37 27 34 38 44 43 32 23 23 25 26 29 30 29 31 30 25 20 21 23 27 30 33 35 37 38 40 41 42 44 47 49 52 55 56 58 59 59 59 59
20 18 8 7 4 8 8 11 12 10 9 10 10 9 7 5 4 4 18 35 47 40 35 35 35 34 32 31 32 31 30 30 30 29 30 31 32 33 36 37 39 39 43 46 48 49 49 51 53 53 56 57 57 58
12 18 15 8 6 6 11 6 5 5 7 6 7 6 6 4 3 5 11 31 53 38 33 35 32 30 29 31 28 25 26 26 28 30 32 31 34 37 38 40 42 45 48 50 50 51 53 53 56 56 57 58 60 61
Wind_Direction_500mb
278 276 276 270 269 264 260 257 253 264 261 259 240 238 237 233 226 212 225 228 209 218 231 214 204 171 156 155 158 146 116 180 164 190 176 163 166 197 178 148 191 176 167 184 149 217 249 149 120 184 135 104 160 177
278 277 272 270 266 265 258 254 253 251 259 253 248 236 231 230 217 209 215 215 213 223 252 235 228 225 209 201 162 168 284 163 173 136 134 118 147 180 156 193 159 219 217 187 200 196 27 163 82 189 156 153 162 165
279 274 274 269 265 262 259 258 250 245 249 251 244 238 229 224 217 221 213 211 194 219 268 245 235 230 218 203 207 156 196 178 182 130 130 130 159 164 171 217 181 214 195 213 180 87 100 190 174 182 175 171 168 173
285 278 273 270 264 260 257 254 250 235 238 245 244 232 225 227 213 215 215 210 195 160 195 233 222 219 223 216 201 188 184 162 150 124 103 139 135 223 183 117 207 138 155 152 79 85 111 202 200 190 189 189 185 187
297 294 278 282 276 259 251 247 244 238 237 242 258 240 218 219 215 211 219 218 212 191 188 191 195 208 211 209 209 211 188 162 137 94 92 119 111 145 351 323 225 187 159 175 189 187 181 202 219 209 210 206 199 204
308 309 302 300 281 263 257 243 238 234 232 237 245 233 217 220 223 190 185 207 203 204 174 193 185 176 186 181 187 192 184 176 153 127 111 126 178 169 172 228 358 180 180 170 163 175 195 202 216 218 218 209 225 241
304 310 308 311 301 286 277 250 232 230 229 232 237 240 226 212 215 209 191 196 200 196 160 138 160 137 159 155 159 168 172 170 166 138 123 142 151 193 227 225 170 188 190 188 180 173 204 206 202 225 232 240 239 243
298 305 308 308 308 302 293 257 225 225 226 224 223 237 223 223 221 215 210 171 179 176 174 147 114 156 163 131 122 144 145 150 97 126 134 136 131 134 250 149 171 177 187 207 210 214 226 230 237 245 242 237 235 232
293 296 303 303 307 303 288 269 223 217 217 214 216 226 220 218 206 223 204 192 183 172 164 144 156 172 165 133 130 124 128 113 111 113 182 147 163 221 218 169 191 200 202 219 222 229 233 245 256 258 256 250 250 253
294 298 303 308 309 300 274 247 211 210 211 202 209 207 193 191 197 157 147 167 170 191 161 124 134 142 166 138 126 123 145 151 174 190 143 205 237 247 248 248 250 239 231 232 231 227 235 247 255 261 265 269 262 263
298 308 304 322 321 295 253 223 204 199 194 198 197 156 147 144 145 181 143 146 145 141 150 140 147 132 167 138 129 182 156 163 166 180 179 190 257 335 319 262 258 256 257 260 265 272 271 270 270 271 268 258 253 257
316 331 322 318 336 287 240 198 192 189 204 190 187 132 133 122 116 163 113 108 132 155 150 134 155 124 136 137 114 164 138 154 179 139 159 211 238 4 359 303 286 280 275 268 262 259 257 256 256 255 253 249 247 247
335 346 340 332 346 263 208 193 187 198 194 173 178 134 135 132 156 161 146 114 152 167 168 160 130 123 114 120 108 150 153 155 127 163 206 233 39 348 344 330 322 296 289 279 258 241 239 238 238 239 243 246 246 245
9 2 0 333 7 307 198 201 206 171 162 167 139 120 139 151 183 178 165 151 163 145 145 137 105 108 125 99 137 120 76 141 166 176 228 47 338 338 345 341 331 328 303 280 238 210 208 211 216 217 219 219 221 225
353 349 15 351 6 25 170 183 164 164 113 125 121 133 169 115 56 112 113 114 116 145 141 99 80 105 108 114 90 108 107 183 205 221 98 336 349 359 7 9 21 36 59 84 108 122 144 149 147 148 149 148 150 161
8 11 18 9 4 23 138 166 183 124 62 62 41 78 55 84 98 112 109 101 131 140 129 84 106 94 112 126 128 190 158 200 169 101 54 1 18 17 22 29 34 44 61 76 90 105 118 123 126 132 135 136 139 137
2 21 9 16 15 11 113 114 77 62 64 53 54 54 50 62 82 97 92 111 147 136 113 109 102 159 103 116 129 6 128 94 98 102 48 29 26 22 28 36 44 56 71 93 102 109 118 119 120 120 133 131 133 137
30 16 10 9 14 15 35 40 66 63 64 25 65 15 45 44 94 81 81 116 132 97 115 126 110 86 97 140 115 49 42 30 74 64 34 29 46 52 62 73 76 83 91 103 113 118 120 118 125 129 130 130 136 142
2 357 359 3 23 43 39 42 46 90 69 76 75 60 62 79 68 84 89 93 94 96 96 40 57 50 60 36 9 22 14 14 356 7 42 41 47 56 69 79 91 101 108 115 118 128 133 133 135 135 134 141 151 165
334 337 347 7 14 68 53 31 47 77 61 54 57 43 56 47 61 58 62 70 73 54 46 43 45 15 0 345 345 346 344 343 349 46 68 44 46 56 80 98 115 128 136 134 136 136 133 139 150 155 168 182 193 215
308 314 90 114 68 67 73 30 48 66 82 69 52 52 63 46 37 35 31 28 58 38 54 36 4 3 356 13 3 357 354 332 326 5 354 355 33 80 108 114 111 111 121 130 133 138 152 192 209 213 220 226 235 240
114 114 92 63 71 73 68 41 75 74 67 79 52 46 44 39 29 29 39 45 58 28 5 349 354 12 40 37 33 29 19 14 23 45 58 94 107 103 106 98 94 98 104 109 119 140 248 271 269 261 261 261 260 257
89 72 55 35 73 49 36 33 70 34 72 60 56 51 33 48 48 33 72 57 62 11 14 17 42 58 60 57 52 52 58 62 66 72 89 96 96 95 91 92 90 91 77 59 39 346 307 286 281 278 272 268 265 263
52 49 30 37 28 33 16 33 38 47 59 46 56 68 41 41 53 61 71 60 9 25 39 47 70 82 84 75 65 63 67 65 65 73 83 87 89 92 90 89 87 82 74 56 5 328 308 296 286 281 279 273 269 272
69 12 22 5 13 22 28 23 10 34 62 30 67 46 26 38 64 59 65 10 13 26 39 53 54 60 62 64 61 57 63 71 69 68 72 76 84 89 88 80 71 57 36 11 352 338 328 315 306 301 293 286 282 280
64 16 37 358 7 34 353 44 27 20 31 54 41 6 53 67 65 62 63 358 6 23 33 51 60 61 58 54 49 47 50 59 68 70 73 70 74 74 71 69 49 25 11 0 346 330 321 316 312 306 298 292 290 290
44 350 13 19 359 356 50 45 39 49 52 33 355 18 50 65 66 46 42 14 36 54 71 71 61 58 55 56 57 58 60 61 78 92 86 66 52 46 36 24 8 347 337 329 322 317 313 309 303 296 292 291 293 293
49 28 23 347 42 36 55 45 33 24 7 349 343 38 79 84 138 69 41 51 85 86 77 66 59 51 43 36 35 40 44 43 46 320 319 323 330 316 318 327 318 309 306 304 304 302 302 304 302 296 292 292 292 293
30 357 17 21 45 47 41 31 12 346 338 0 66 76 88 72 93 107 93 91 99 98 82 62 47 31 15 3 354 351 349 330 306 296 303 307 304 298 302 306 306 304 300 299 297 296 295 296 283 286 291 292 291 291
-0 9 63 39 47 43 17 40 47 60 72 84 97 103 92 89 89 89 84 70 55 43 32 17 1 350 349 342 346 348 332 334 327 323 321 319 318 316 315 315 312 309 309 308 306 303 299 297 294 291 291 291 293 293
6 28 52 49 73 65 76 79 77 83 92 90 98 99 106 104 87 70 56 44 35 22 5 2 5 355 354 353 350 348 353 345 338 333 328 327 324 324 322 319 317 318 318 316 314 314 312 310 308 306 305 304 304 303
29 37 62 80 76 75 65 77 78 88 80 68 72 85 80 91 77 79 23 14 10 7 2 360 354 358 355 349 344 339 340 340 339 335 330 327 326 326 324 322 323 325 322 320 319 318 318 316 315 315 313 312 311 310
45 46 57 68 58 39 22 43 67 81 58 58 56 61 63 55 77 28 8 0 351 352 356 354 352 350 344 339 338 337 336 330 329 329 328 328 327 327 327 325 326 322 318 316 316 315 315 314 313 314 313 312 311 311
Wind_Speed_850mb
47 50 51 53 52 54 55 58 56 61 58 50 51 51 52 48 59 43 25 17 28 11 12 21 15 9 11 15 10 16 10 4 2 8 8 7 7 11 6 3 7 17 17 8 6 7 18 22 12 16 5 10 22 31
52 54 57 55 54 54 54 57 59 58 72 64 51 53 54 48 54 49 30 23 26 16 9 15 22 25 23 18 18 38 0 7 14 6 4 6 5 5 7 9 3 8 3 8 14 5 5 40 9 15 23 40 28 37
51 55 56 54 56 57 54 56 60 61 64 59 55 53 54 56 54 61 44 35 31 12 12 16 19 28 29 19 20 13 9 15 10 8 8 5 6 7 10 9 4 6 5 3 5 6 5 30 15 30 28 33 36 33
44 48 52 52 56 60 60 56 55 60 57 54 58 48 56 56 56 62 65 46 41 11 5 6 18 20 27 30 24 13 16 19 26 14 5 4 4 8 7 3 6 4 16 11 3 4 6 13 37 37 35 34 35 33
38 41 42 50 52 57 63 62 56 56 54 49 41 55 42 50 54 65 60 64 48 22 9 5 7 19 17 28 21 17 15 15 9 5 3 4 6 6 3 2 8 14 12 9 7 26 20 29 55 60 53 46 31 29
39 38 36 38 34 39 46 62 62 60 53 52 46 60 39 52 51 54 29 65 54 50 7 4 6 10 20 26 23 27 27 17 8 8 5 4 7 5 7 6 2 24 23 22 10 29 34 14 30 44 50 41 35 39
36 40 35 35 36 36 43 52 64 61 58 57 54 44 48 44 49 49 13 25 71 60 16 4 2 6 23 27 20 22 23 13 10 9 5 9 6 10 3 7 14 30 27 29 17 25 25 29 18 26 32 34 36 38
38 42 38 39 41 43 43 43 62 59 56 55 57 46 51 44 42 51 56 7 75 55 19 7 4 7 24 9 8 12 10 9 5 9 7 5 8 1 7 4 26 28 25 29 27 27 24 23 30 28 18 21 25 34
38 40 43 47 54 53 47 40 59 62 56 54 55 44 43 49 40 33 63 33 78 21 13 9 15 12 28 11 12 8 7 3 3 3 4 8 5 9 13 15 34 41 36 27 36 40 39 40 39 34 33 33 36 37
35 39 43 48 61 54 45 37 57 57 52 53 47 35 23 25 48 50 43 45 25 22 12 4 15 8 22 11 6 10 6 7 8 7 16 7 8 47 29 40 30 21 37 36 29 30 36 42 43 42 40 38 39 33
32 34 39 47 50 40 34 42 58 56 54 60 32 17 36 77 41 11 10 10 8 8 14 11 11 12 14 7 6 4 7 8 9 7 12 7 8 2 14 21 30 28 28 32 36 39 38 37 36 37 35 31 31 33
24 33 39 46 53 25 21 37 59 64 50 39 23 51 45 14 9 7 5 6 4 9 8 11 13 16 14 12 6 9 5 4 8 12 8 6 4 10 17 6 13 17 19 21 27 30 32 34 35 36 36 34 33 35
23 34 39 47 50 15 23 38 55 67 48 42 14 14 13 6 8 12 10 4 7 9 19 20 10 14 11 9 6 5 9 5 18 6 7 7 5 16 22 16 10 12 14 14 16 18 19 21 24 25 24 24 26 28
16 29 41 42 51 2 26 36 35 51 65 9 9 11 6 7 7 7 11 10 10 19 43 35 13 7 8 5 5 8 4 8 7 9 10 3 13 22 22 20 16 10 8 5 5 6 9 11 12 12 14 14 13 15
14 25 40 32 55 11 23 23 71 58 10 8 10 11 7 11 10 10 20 20 15 48 44 20 17 10 3 8 4 9 5 6 10 8 3 2 12 17 17 16 14 11 8 7 7 8 8 9 9 9 10 9 9 9
29 27 52 45 52 29 24 57 55 6 10 9 16 7 4 7 3 6 14 16 33 51 29 13 7 7 4 8 7 9 17 12 5 3 3 6 10 13 13 14 13 12 11 11 11 11 11 14 14 14 17 18 17 16
24 42 43 35 34 41 11 25 12 15 12 9 6 14 14 18 11 11 11 18 41 17 5 6 7 8 8 6 6 5 4 5 6 7 5 10 12 11 11 12 11 11 9 11 12 15 14 16 16 18 17 20 18 17
30 33 33 29 23 24 40 20 13 14 14 16 8 13 17 15 20 21 16 23 17 9 5 5 12 7 4 9 6 5 13 7 12 15 14 12 10 10 9 10 11 12 12 14 16 18 19 20 17 18 16 15 13 11
26 27 26 21 18 10 11 13 13 9 10 10 17 17 17 18 43 36 34 33 32 24 16 13 15 7 6 7 7 9 14 16 13 12 11 12 8 7 7 9 10 11 12 10 11 10 11 13 13 13 13 11 9 7
28 23 15 10 8 8 10 14 13 16 7 8 17 20 15 15 22 50 53 42 38 19 19 12 7 5 6 8 10 13 13 15 12 5 7 10 8 7 6 5 6 8 10 12 12 12 12 10 10 9 7 7 6 6
18 5 2 8 16 20 14 12 17 13 12 15 12 13 14 26 29 34 35 36 32 17 8 13 18 15 10 7 11 11 10 11 8 5 5 5 5 4 6 6 6 5 5 6 4 3 3 3 3 3 5 6 6 7
6 11 11 15 14 13 18 20 11 9 10 10 11 15 15 7 14 22 19 40 16 15 16 23 25 17 15 13 12 12 10 7 6 5 5 5 5 6 6 6 6 5 3 2 2 1 1 3 4 5 6 6 7 8
14 13 17 20 13 16 7 11 9 12 7 5 8 8 8 8 12 17 15 16 13 24 26 26 17 19 20 18 15 15 16 15 12 10 11 12 11 10 8 10 9 7 5 4 2 2 3 5 7 9 9 11 11 11
19 18 22 17 29 7 8 14 12 11 10 8 7 7 7 8 10 14 9 9 19 26 29 30 21 19 20 22 25 25 24 23 20 17 18 18 16 15 14 13 12 9 6 4 3 4 6 8 10 10 11 11 13 15
15 28 20 17 25 14 14 10 11 9 9 10 8 8 7 11 7 8 6 12 25 30 26 24 25 25 25 24 24 24 20 17 19 22 21 18 15 14 15 15 13 10 8 8 7 8 10 12 13 14 15 17 20 22
18 23 15 16 15 10 8 8 11 13 8 9 9 6 8 7 10 7 3 19 17 24 23 24 27 30 31 27 25 23 19 14 14 16 19 17 15 13 13 11 9 10 12 11 11 12 14 16 17 18 19 22 26 29
15 11 17 23 12 9 10 16 15 11 11 10 6 7 6 10 8 3 4 20 17 21 23 24 27 31 33 31 24 22 22 20 15 16 18 16 15 16 14 13 13 15 16 17 19 21 22 23 25 27 30 31 32 34
15 25 12 27 19 25 8 9 11 11 7 13 3 11 7 6 3 5 10 11 11 13 15 17 19 21 22 22 19 16 13 10 5 2 8 9 12 13 13 17 19 22 26 28 29 31 31 32 35 40 43 45 46 46
16 34 13 13 14 19 19 10 8 10 15 6 4 5 7 10 11 14 18 17 15 13 14 14 16 15 13 14 17 17 14 11 10 11 15 20 22 21 28 32 34 35 38 40 40 41 42 36 41 52 56 57 60 61
22 31 9 15 10 12 19 18 28 33 37 36 34 53 46 40 30 23 20 18 18 20 21 21 25 28 28 28 22 15 21 22 21 26 33 35 39 39 40 40 41 43 43 44 46 47 47 50 52 54 57 59 60 63
20 19 15 18 12 18 32 41 45 46 52 51 48 48 37 27 34 38 44 43 32 23 23 25 26 29 30 29 31 30 25 20 21 23 27 30 33 35 37 38 40 41 42 44 47 49 52 55 56 58 59 59 59 59
20 18 8 7 4 8 8 11 12 10 9 10 10 9 7 5 4 4 18 35 47 40 35 35 35 34 32 31 32 31 30 30 30 29 30 31 32 33 36 37 39 39 43 46 48 49 49 51 53 53 56 57 57 58
12 18 15 8 6 6 11 6 5 5 7 6 7 6 6 4 3 5 11 31 53 38 33 35 32 30 29 31 28 25 26 26 28 30 32 31 34 37 38 40 42 45 48 50 50 51 53 53 56 56 57 58 60 61
Wind_Direction_850mb
278 276 276 270 269 264 260 257 253 264 261 259 240 238 237 233 226 212 225 228 209 218 231 214 204 171 156 155 158 146 116 180 164 190 176 163 166 197 178 148 191 176 167 184 149 217 249 149 120 184 135 104 160 177
278 277 272 270 266 265 258 254 253 251 259 253 248 236 231 230 217 209 215 215 213 223 252 235 228 225 209 201 162 168 284 163 173 136 134 118 147 180 156 193 159 219 217 187 200 196 27 163 82 189 156 153 162 165
279 274 274 269 265 262 259 258 250 245 249 251 244 238 229 224 217 221 213 211 194 219 268 245 235 230 218 203 207 156 196 178 182 130 130 130 159 164 171 217 181 214 195 213 180 87 100 190 174 182 175 171 168 173
285 278 273 270 264 260 257 254 250 235 238 245 244 232 225 227 213 215 215 210 195 160 195 233 222 219 223 216 201 188 184 162 150 124 103 139 135 223 183 117 207 138 155 152 79 85 111 202 200 190 189 189 185 187
297 294 278 282 276 259 251 247 244 238 237 242 258 240 218 219 215 211 219 218 212 191 188 191 195 208 211 209 209 211 188 162 137 94 92 119 111 145 351 323 225 187 159 175 189 187 181 202 219 209 210 206 199 204
308 309 302 300 281 263 257 243 238 234 232 237 245 233 217 220 223 190 185 207 203 204 174 193 185 176 186 181 187 192 184 176 153 127 111 126 178 169 172 228 358 180 180 170 163 175 195 202 216 218 218 209 225 241
304 310 308 311 301 286 277 250 232 230 229 232 237 240 226 212 215 209 191 196 200 196 160 138 160 137 159 155 159 168 172 170 166 138 123 142 151 193 227 225 170 188 190 188 180 173 204 206 202 225 232 240 239 243
298 305 308 308 308 302 293 257 225 225 226 224 223 237 223 223 221 215 210 171 179 176 174 147 114 156 163 131 122 144 145 150 97 126 134 136 131 134 250 149 171 177 187 207 210 214 226 230 237 245 242 237 235 232
293 296 303 303 307 303 288 269 223 217 217 214 216 226 220 218 206 223 204 192 183 172 164 144 156 172 165 133 130 124 128 113 111 113 182 147 163 221 218 169 191 200 202 219 222 229 233 245 256 258 256 250 250 253
294 298 303 308 309 300 274 247 211 210 211 202 209 207 193 191 197 157 147 167 170 191 161 124 134 142 166 138 126 123 145 151 174 190 143 205 237 247 248 248 250 239 231 232 231 227 235 247 255 261 265 269 262 263
298 308 304 322 321 295 253 223 204 199 194 198 197 156 147 144 145 181 143 146 145 141 150 140 147 132 167 138 129 182 156 163 166 180 179 190 257 335 319 262 258 256 257 260 265 272 271 270 270 271 268 258 253 257
316 331 322 318 336 287 240 198 192 189 204 190 187 132 133 122 116 163 113 108 132 155 150 134 155 124 136 137 114 164 138 154 179 139 159 211 238 4 359 303 286 280 275 268 262 259 257 256 256 255 253 249 247 247
335 346 340 332 346 263 208 193 187 198 194 173 178 134 135 132 156 161 146 114 152 167 168 160 130 123 114 120 108 150 153 155 127 163 206 233 39 348 344 330 322 296 289 279 258 241 239 238 238 239 243 246 246 245
9 2 0 333 7 307 198 201 206 171 162 167 139 120 139 151 183 178 165 151 163 145 145 137 105 108 125 99 137 120 76 141 166 176 228 47 338 338 345 341 331 328 303 280 238 210 208 211 216 217 219 219 221 225
353 349 15 351 6 25 170 183 164 164 113 125 121 133 169 115 56 112 113 114 116 145 141 99 80 105 108 114 90 108 107 183 205 221 98 336 349 359 7 9 21 36 59 84 108 122 144 149 147 148 149 148 150 161
8 11 18 9 4 23 138 166 183 124 62 62 41 78 55 84 98 112 109 101 131 140 129 84 106 94 112 126 128 190 158 200 169 101 54 1 18 17 22 29 34 44 61 76 90 105 118 123 126 132 135 136 139 137
2 21 9 16 15 11 113 114 77 62 64 53 54 54 50 62 82 97 92 111 147 136 113 109 102 159 103 116 129 6 128 94 98 102 48 29 26 22 28 36 44 56 71 93 102 109 118 119 120 120 133 131 133 137
30 16 10 9 14 15 35 40 66 63 64 25 65 15 45 44 94 81 81 116 132 97 115 126 110 86 97 140 115 49 42 30 74 64 34 29 46 52 62 73 76 83 91 103 113 118 120 118 125 129 130 130 136 142
2 357 359 3 23 43 39 42 46 90 69 76 75 60 62 79 68 84 89 93 94 96 96 40 57 50 60 36 9 22 14 14 356 7 42 41 47 56 69 79 91 101 108 115 118 128 133 133 135 135 134 141 151 165
334 337 347 7 14 68 53 31 47 77 61 54 57 43 56 47 61 58 62 70 73 54 46 43 45 15 0 345 345 346 344 343 349 46 68 44 46 56 80 98 115 128 136 134 136 136 133 139 150 155 168 182 193 215
308 314 90 114 68 67 73 30 48 66 82 69 52 52 63 46 37 35 31 28 58 38 54 36 4 3 356 13 3 357 354 332 326 5 354 355 33 80 108 114 111 111 121 130 133 138 152 192 209 213 220 226 235 240
114 114 92 63 71 73 68 41 75 74 67 79 52 46 44 39 29 29 39 45 58 28 5 349 354 12 40 37 33 29 19 14 23 45 58 94 107 103 106 98 94 98 104 109 119 140 248 271 269 261 261 261 260 257
89 72 55 35 73 49 36 33 70 34 72 60 56 51 33 48 48 33 72 57 62 11 14 17 42 58 60 57 52 52 58 62 66 72 89 96 96 95 91 92 90 91 77 59 39 346 307 286 281 278 272 268 265 263
52 49 30 37 28 33 16 33 38 47 59 46 56 68 41 41 53 61 71 60 9 25 39 47 70 82 84 75 65 63 67 65 65 73 83 87 89 92 90 89 87 82 74 56 5 328 308 296 286 281 279 273 269 272
69 12 22 5 13 22 28 23 10 34 62 30 67 46 26 38 64 59 65 10 13 26 39 53 54 60 62 64 61 57 63 71 69 68 72 76 84 89 88 80 71 57 36 11 352 338 328 315 306 301 293 286 282 280
64 16 37 358 7 34 353 44 27 20 31 54 41 6 53 67 65 62 63 358 6 23 33 51 60 61 58 54 49 47 50 59 68 70 73 70 74 74 71 69 49 25 11 0 346 330 321 316 312 306 298 292 290 290
44 350 13 19 359 356 50 45 39 49 52 33 355 18 50 65 66 46 42 14 36 54 71 71 61 58 55 56 57 58 60 61 78 92 86 66 52 46 36 24 8 347 337 329 322 317 313 309 303 296 292 291 293 293
49 28 23 347 42 36 55 45 33 24 7 349 343 38 79 84 138 69 41 51 85 86 77 66 59 51 43 36 35 40 44 43 46 320 319 323 330 316 318 327 318 309 306 304 304 302 302 304 302 296 292 292 292 293
30 357 17 21 45 47 41 31 12 346 338 0 66 76 88 72 93 107 93 91 99 98 82 62 47 31 15 3 354 351 349 330 306 296 303 307 304 298 302 306 306 304 300 299 297 296 295 296 283 286 291 292 291 291
-0 9 63 39 47 43 17 40 47 60 72 84 97 103 92 89 89 89 84 70 55 43 32 17 1 350 349 342 346 348 332 334 327 323 321 319 318 316 315 315 312 309 309 308 306 303 299 297 294 291 291 291 293 293
6 28 52 49 73 65 76 79 77 83 92 90 98 99 106 104 87 70 56 44 35 22 5 2 5 355 354 353 350 348 353 345 338 333 328 327 324 324 322 319 317 318 318 316 314 314 312 310 308 306 305 304 304 303
29 37 62 80 76 75 65 77 78 88 80 68 72 85 80 91 77 79 23 14 10 7 2 360 354 358 355 349 344 339 340 340 339 335 330 327 326 326 324 322 323 325 322 320 319 318 318 316 315 315 313 312 311 310
45 46 57 68 58 39 22 43 67 81 58 58 56 61 63 55 77 28 8 0 351 352 356 354 352 350 344 339 338 337 336 330 329 329 328 328 327 327 327 325 326 322 318 316 316 315 315 314 313 314 313 312 311 311